Savannah, GA

8:33 PM EDT on April 25, 2017 (GMT -0400)
Savannah International

Weather History for KSAV - March, 2014

Change the Weather History Date:

Sunday, March 9, 2014

  Actual Average Record
Temperature  
Mean Temperature 62 °F 58 °F  
Max Temperature 78 °F 69 °F 88 °F (1974)
Min Temperature 46 °F 46 °F 24 °F (1996)
Degree Days  
Heating Degree Days 3 8  
Month to date heating degree days 120 79  
Since 1 July heating degree days 1501 1596  
Cooling Degree Days 0 1  
Month to date cooling degree days 0 9  
Year to date cooling degree days 18 19  
Growing Degree Days 12 (Base 50)    
Moisture  
Dew Point 43 °F    
Average Humidity 57    
Maximum Humidity 86    
Minimum Humidity 28    
Precipitation  
Precipitation 0.00 in 0.12 in 2.14 in (1948)
Month to date precipitation 1.23 1.07  
Year to date precipitation 5.34 7.55  
Sea Level Pressure  
Sea Level Pressure 30.11 in    
Wind  
Wind Speed 7 mph (WSW)    
Max Wind Speed 20 mph    
Max Gust Speed 23 mph    
Visibility 10 miles    
Events      
T = Trace of Precipitation, MM = Missing Value Source: NWS Daily Summary

Daily Weather History Graph

Daily Weather History Graph

Search for Another Location

Airport or City:

Trip Planner

Search our weather history database for the weather conditions in past years. The results will help you decide how hot, cold, wet, or windy it might be!

Date:

Astronomy

Mar. 09, 2014 Rise Set
Actual Time 7:42 AM EDT 7:28 PM EDT
Civil Twilight 7:18 AM EDT 7:52 PM EDT
Nautical Twilight 6:49 AM EDT 8:21 PM EDT
Astronomical Twilight 6:21 AM EDT 8:49 PM EDT
Moon 1:34 PM EDT (3/9) 3:52 AM EDT (3/9)
Length of Visible Light 12h 34m
Length of Day
11h 46m
First Quarter, 61% of the Moon is Illuminated
Mar 9
First Quarter
Mar 16
Full
Mar 23
Last Quarter
Mar 30
New
Apr 7
First Quarter

Hourly Weather History & Observations

Time (EDT) Temp. Dew Point Humidity Pressure Visibility Wind Dir Wind Speed Gust Speed Precip Events Conditions
12:53 AM 51.1 °F 42.1 °F 71% 30.15 in 10.0 mi SW 4.6 mph - N/A   Clear
1:53 AM 50.0 °F 42.1 °F 74% 30.13 in 10.0 mi SSW 4.6 mph - N/A   Clear
3:53 AM 48.9 °F 42.1 °F 77% 30.12 in 10.0 mi SW 4.6 mph - N/A   Clear
4:53 AM 48.0 °F 42.1 °F 80% 30.11 in 10.0 mi SSW 4.6 mph - N/A   Clear
5:53 AM 48.0 °F 43.0 °F 83% 30.12 in 10.0 mi SSW 3.5 mph - N/A   Clear
6:53 AM 48.0 °F 43.0 °F 83% 30.13 in 10.0 mi Calm Calm - N/A   Scattered Clouds
7:53 AM 48.9 °F 44.1 °F 83% 30.16 in 10.0 mi WSW 4.6 mph - N/A   Scattered Clouds
8:53 AM 50.0 °F 46.0 °F 86% 30.17 in 10.0 mi West 4.6 mph - N/A   Mostly Cloudy
9:53 AM 55.9 °F 46.9 °F 72% 30.17 in 10.0 mi WNW 9.2 mph - N/A   Scattered Clouds
10:53 AM 64.0 °F 46.9 °F 54% 30.17 in 10.0 mi WNW 9.2 mph - N/A   Partly Cloudy
11:53 AM 69.1 °F 46.0 °F 44% 30.16 in 10.0 mi West 11.5 mph - N/A   Partly Cloudy
12:53 PM 72.0 °F 44.1 °F 37% 30.13 in 10.0 mi NW 8.1 mph 19.6 mph N/A   Partly Cloudy
1:53 PM 75.0 °F 43.0 °F 32% 30.11 in 10.0 mi West 13.8 mph - N/A   Clear
2:53 PM 75.9 °F 43.0 °F 31% 30.08 in 10.0 mi West 10.4 mph 21.9 mph N/A   Clear
3:53 PM 77.0 °F 41.0 °F 28% 30.06 in 10.0 mi WSW 17.3 mph 20.7 mph N/A   Clear
4:53 PM 78.1 °F 42.1 °F 28% 30.05 in 10.0 mi West 11.5 mph 20.7 mph N/A   Scattered Clouds
5:53 PM 77.0 °F 42.1 °F 29% 30.04 in 10.0 mi West 12.7 mph - N/A   Scattered Clouds
6:53 PM 73.0 °F 42.1 °F 33% 30.04 in 10.0 mi West 9.2 mph - N/A   Scattered Clouds
7:53 PM 68.0 °F 43.0 °F 40% 30.06 in 10.0 mi WSW 4.6 mph - N/A   Scattered Clouds
8:53 PM 66.0 °F 43.0 °F 43% 30.06 in 10.0 mi SW 4.6 mph - N/A   Scattered Clouds
9:53 PM 61.0 °F 44.1 °F 54% 30.07 in 10.0 mi WSW 4.6 mph - N/A   Scattered Clouds
10:53 PM 61.0 °F 43.0 °F 52% 30.08 in 10.0 mi WSW 5.8 mph - N/A   Scattered Clouds
11:53 PM 60.1 °F 43.0 °F 53% 30.08 in 10.0 mi West 6.9 mph - N/A   Scattered Clouds
12:53 AM 59.0 °F 43.0 °F 55% 30.07 in 10.0 mi West 5.8 mph - N/A   Clear